Time,TemperatureF,DewpointF,PressureIn,WindDirection,WindDirectionDegrees,WindSpeedMPH,WindSpeedGustMPH,Humidity,HourlyPrecipIn,Conditions,Clouds,dailyrainin,SoftwareType,DateUTC
2013-01-28 00:02:00,8.4,-2.0,30.47,East,86,0.0,0.0,62,0.00,,,0.00,Wunderground v.1.15,2013-01-28 05:02:00,
2013-01-28 00:03:00,8.4,-2.0,30.47,East,86,0.0,0.0,62,0.00,,,0.00,Wunderground v.1.15,2013-01-28 05:03:00,
2013-01-28 00:04:00,8.4,-1.6,30.47,East,86,0.0,0.0,63,0.00,,,0.00,Wunderground v.1.15,2013-01-28 05:04:00,
2013-01-28 00:06:00,8.3,-1.7,30.47,East,86,0.0,0.0,63,0.00,,,0.00,Wunderground v.1.15,2013-01-28 05:06:00,
2013-01-28 00:11:00,7.9,-1.4,30.47,East,86,0.0,0.0,65,0.00,,,0.00,Wunderground v.1.15,2013-01-28 05:11:00,
2013-01-28 00:16:00,7.6,-1.4,30.47,East,86,0.0,0.0,66,0.00,,,0.00,Wunderground v.1.15,2013-01-28 05:16:00,
2013-01-28 00:22:00,7.2,-1.5,30.47,East,86,0.0,0.0,67,0.00,,,0.00,Wunderground v.1.15,2013-01-28 05:22:00,
2013-01-28 00:28:00,7.0,-1.3,30.47,East,86,0.0,0.0,68,0.00,,,0.00,Wunderground v.1.15,2013-01-28 05:28:00,
2013-01-28 00:33:00,6.9,-1.4,30.47,East,86,0.0,0.0,68,0.00,,,0.00,Wunderground v.1.15,2013-01-28 05:33:00,
2013-01-28 00:39:00,7.0,-1.3,30.47,East,86,0.0,1.0,68,0.00,,,0.00,Wunderground v.1.15,2013-01-28 05:39:00,
2013-01-28 00:44:00,7.2,-1.5,30.47,East,86,0.0,1.0,67,0.00,,,0.00,Wunderground v.1.15,2013-01-28 05:44:00,
2013-01-28 00:50:00,7.4,-1.6,30.47,East,86,1.0,1.0,66,0.00,,,0.00,Wunderground v.1.15,2013-01-28 05:50:00,
2013-01-28 00:56:00,6.9,-1.4,30.48,East,86,0.0,1.0,68,0.00,,,0.00,Wunderground v.1.15,2013-01-28 05:56:00,
2013-01-28 01:01:00,6.7,-1.3,30.48,East,86,0.0,0.0,69,0.00,,,0.00,Wunderground v.1.15,2013-01-28 06:01:00,
2013-01-28 01:06:00,6.7,-1.3,30.48,East,86,0.0,0.0,69,0.00,,,0.00,Wunderground v.1.15,2013-01-28 06:06:00,
2013-01-28 01:12:00,7.4,-1.3,30.48,East,86,1.0,3.0,67,0.00,,,0.00,Wunderground v.1.15,2013-01-28 06:12:00,
2013-01-28 01:17:00,7.7,-1.0,30.48,East,86,1.0,3.0,67,0.00,,,0.00,Wunderground v.1.15,2013-01-28 06:17:00,
2013-01-28 01:23:00,8.1,-0.6,30.48,East,87,3.0,3.0,67,0.00,,,0.00,Wunderground v.1.15,2013-01-28 06:23:00,
2013-01-28 01:29:00,8.3,-0.7,30.48,East,96,3.0,4.0,66,0.00,,,0.00,Wunderground v.1.15,2013-01-28 06:29:00,
2013-01-28 01:34:00,8.4,-0.6,30.48,East,98,2.0,5.0,66,0.00,,,0.00,Wunderground v.1.15,2013-01-28 06:34:00,
2013-01-28 01:40:00,8.8,-0.6,30.48,East,98,0.0,2.0,65,0.00,,,0.00,Wunderground v.1.15,2013-01-28 06:40:00,
2013-01-28 01:45:00,9.0,-0.7,30.48,East,100,3.0,4.0,64,0.00,,,0.00,Wunderground v.1.15,2013-01-28 06:45:00,
2013-01-28 01:51:00,9.0,-1.1,30.48,ESE,105,3.0,3.0,63,0.00,,,0.00,Wunderground v.1.15,2013-01-28 06:51:00,
2013-01-28 01:57:00,9.0,-1.1,30.48,ESE,105,3.0,3.0,63,0.00,,,0.00,Wunderground v.1.15,2013-01-28 06:57:00,
2013-01-28 02:02:00,9.0,-1.1,30.48,ESE,105,4.0,4.0,63,0.00,,,0.00,Wunderground v.1.15,2013-01-28 07:02:00,
2013-01-28 02:07:00,9.0,-1.1,30.48,ESE,106,4.0,6.0,63,0.00,,,0.00,Wunderground v.1.15,2013-01-28 07:07:00,
2013-01-28 02:12:00,9.2,-1.2,30.47,ESE,107,1.0,5.0,62,0.00,,,0.00,Wunderground v.1.15,2013-01-28 07:12:00,
2013-01-28 02:17:00,9.2,-1.2,30.47,ESE,107,2.0,6.0,62,0.00,,,0.00,Wunderground v.1.15,2013-01-28 07:17:00,
2013-01-28 02:22:00,9.2,-0.9,30.47,ESE,107,2.0,3.0,63,0.00,,,0.00,Wunderground v.1.15,2013-01-28 07:22:00,
2013-01-28 02:27:00,9.3,-0.8,30.46,ESE,107,1.0,3.0,63,0.00,,,0.00,Wunderground v.1.15,2013-01-28 07:27:00,
2013-01-28 02:32:00,9.3,-0.8,30.46,ESE,107,0.0,3.0,63,0.00,,,0.00,Wunderground v.1.15,2013-01-28 07:32:00,
2013-01-28 02:37:00,9.5,-0.6,30.46,ESE,107,0.0,3.0,63,0.00,,,0.00,Wunderground v.1.15,2013-01-28 07:37:00,
2013-01-28 02:42:00,9.2,-0.5,30.45,ESE,107,0.0,1.0,64,0.00,,,0.00,Wunderground v.1.15,2013-01-28 07:42:00,
2013-01-28 02:47:00,8.4,-0.6,30.45,ESE,107,0.0,1.0,66,0.00,,,0.00,Wunderground v.1.15,2013-01-28 07:47:00,
2013-01-28 02:52:00,8.3,-0.4,30.45,ESE,107,0.0,0.0,67,0.00,,,0.00,Wunderground v.1.15,2013-01-28 07:52:00,
2013-01-28 02:57:00,8.3,-0.4,30.45,ESE,107,0.0,0.0,67,0.00,,,0.00,Wunderground v.1.15,2013-01-28 07:57:00,
2013-01-28 03:02:00,8.1,-0.6,30.45,ESE,107,0.0,0.0,67,0.00,,,0.00,Wunderground v.1.15,2013-01-28 08:02:00,
2013-01-28 03:07:00,7.7,-0.7,30.45,ESE,107,0.0,2.0,68,0.00,,,0.00,Wunderground v.1.15,2013-01-28 08:07:00,
2013-01-28 03:12:00,7.6,-0.5,30.44,ESE,107,0.0,0.0,69,0.00,,,0.00,Wunderground v.1.15,2013-01-28 08:12:00,
2013-01-28 03:17:00,7.4,-0.6,30.44,ESE,107,0.0,0.0,69,0.00,,,0.00,Wunderground v.1.15,2013-01-28 08:17:00,
2013-01-28 03:22:00,7.4,-0.3,30.44,ESE,107,0.0,0.0,70,0.00,,,0.00,Wunderground v.1.15,2013-01-28 08:22:00,
2013-01-28 03:27:00,7.4,0.0,30.44,ESE,107,0.0,1.0,71,0.00,,,0.00,Wunderground v.1.15,2013-01-28 08:27:00,
2013-01-28 03:32:00,7.7,-0.1,30.44,ESE,107,0.0,0.0,70,0.00,,,0.00,Wunderground v.1.15,2013-01-28 08:32:00,
2013-01-28 03:37:00,8.1,0.3,30.44,ESE,107,1.0,1.0,70,0.00,,,0.00,Wunderground v.1.15,2013-01-28 08:37:00,
2013-01-28 03:42:00,8.4,0.3,30.43,ESE,107,0.0,2.0,69,0.00,,,0.00,Wunderground v.1.15,2013-01-28 08:42:00,
2013-01-28 03:47:00,8.6,0.2,30.43,ESE,107,1.0,2.0,68,0.00,,,0.00,Wunderground v.1.15,2013-01-28 08:47:00,
2013-01-28 03:52:00,8.8,0.4,30.43,ESE,107,1.0,3.0,68,0.00,,,0.00,Wunderground v.1.15,2013-01-28 08:52:00,
2013-01-28 03:57:00,8.8,0.4,30.43,ESE,107,0.0,3.0,68,0.00,,,0.00,Wunderground v.1.15,2013-01-28 08:57:00,
2013-01-28 04:03:00,9.0,0.6,30.43,ESE,107,2.0,3.0,68,0.00,,,0.00,Wunderground v.1.15,2013-01-28 09:03:00,
2013-01-28 04:08:00,9.3,0.5,30.43,ESE,107,1.0,5.0,67,0.00,,,0.00,Wunderground v.1.15,2013-01-28 09:08:00,
2013-01-28 04:13:00,9.5,0.4,30.43,ESE,107,2.0,2.0,66,0.00,,,0.00,Wunderground v.1.15,2013-01-28 09:13:00,
2013-01-28 04:18:00,9.5,0.4,30.43,ESE,107,0.0,4.0,66,0.00,,,0.00,Wunderground v.1.15,2013-01-28 09:18:00,
2013-01-28 04:23:00,9.7,0.9,30.43,ESE,107,0.0,1.0,67,0.00,,,0.00,Wunderground v.1.15,2013-01-28 09:23:00,
2013-01-28 04:28:00,9.7,1.2,30.42,ESE,107,1.0,1.0,68,0.00,,,0.00,Wunderground v.1.15,2013-01-28 09:28:00,
2013-01-28 04:33:00,9.7,0.9,30.42,ESE,107,0.0,2.0,67,0.00,,,0.00,Wunderground v.1.15,2013-01-28 09:33:00,
2013-01-28 04:38:00,9.9,0.8,30.42,ESE,107,1.0,3.0,66,0.00,,,0.00,Wunderground v.1.15,2013-01-28 09:38:00,
2013-01-28 04:43:00,10.2,0.8,30.42,ESE,107,0.0,2.0,65,0.00,,,0.00,Wunderground v.1.15,2013-01-28 09:43:00,
2013-01-28 04:48:00,10.4,0.6,30.42,ESE,107,0.0,2.0,64,0.00,,,0.00,Wunderground v.1.15,2013-01-28 09:48:00,
2013-01-28 04:53:00,10.7,0.9,30.42,ESE,107,0.0,4.0,64,0.00,,,0.00,Wunderground v.1.15,2013-01-28 09:53:00,
2013-01-28 04:58:00,10.9,1.1,30.41,ESE,107,0.0,4.0,64,0.00,,,0.00,Wunderground v.1.15,2013-01-28 09:58:00,
2013-01-28 05:04:00,11.1,1.3,30.41,ESE,107,0.0,1.0,64,0.00,,,0.00,Wunderground v.1.15,2013-01-28 10:04:00,
2013-01-28 05:09:00,11.1,0.9,30.41,ESE,107,0.0,3.0,63,0.00,,,0.00,Wunderground v.1.15,2013-01-28 10:09:00,
2013-01-28 05:14:00,11.1,0.6,30.41,ESE,107,0.0,4.0,62,0.00,,,0.00,Wunderground v.1.15,2013-01-28 10:14:00,
2013-01-28 05:19:00,11.1,0.9,30.41,ESE,109,4.0,4.0,63,0.00,,,0.00,Wunderground v.1.15,2013-01-28 10:19:00,
2013-01-28 05:24:00,10.7,0.9,30.41,ESE,115,2.0,6.0,64,0.00,,,0.00,Wunderground v.1.15,2013-01-28 10:24:00,
2013-01-28 05:29:00,10.7,1.6,30.41,ESE,117,0.0,6.0,66,0.00,,,0.00,Wunderground v.1.15,2013-01-28 10:29:00,
2013-01-28 05:34:00,10.7,1.6,30.41,ESE,117,2.0,4.0,66,0.00,,,0.00,Wunderground v.1.15,2013-01-28 10:34:00,
2013-01-28 05:39:00,10.7,1.9,30.41,ESE,119,3.0,4.0,67,0.00,,,0.00,Wunderground v.1.15,2013-01-28 10:39:00,
2013-01-28 05:44:00,10.7,2.2,30.41,ESE,119,2.0,4.0,68,0.00,,,0.00,Wunderground v.1.15,2013-01-28 10:44:00,
2013-01-28 05:49:00,10.9,2.4,30.41,ESE,120,2.0,4.0,68,0.00,,,0.00,Wunderground v.1.15,2013-01-28 10:49:00,
2013-01-28 05:54:00,11.2,2.4,30.41,ESE,121,2.0,3.0,67,0.00,,,0.00,Wunderground v.1.15,2013-01-28 10:54:00,
2013-01-28 05:59:00,11.6,2.4,30.40,ESE,122,2.0,5.0,66,0.00,,,0.00,Wunderground v.1.15,2013-01-28 10:59:00,
2013-01-28 06:04:00,11.7,2.5,30.40,ESE,122,0.0,4.0,66,0.00,,,0.00,Wunderground v.1.15,2013-01-28 11:04:00,
2013-01-28 06:09:00,11.9,2.4,30.40,ESE,122,0.0,4.0,65,0.00,,,0.00,Wunderground v.1.15,2013-01-28 11:09:00,
2013-01-28 06:14:00,12.1,2.6,30.39,ESE,122,3.0,3.0,65,0.00,,,0.00,Wunderground v.1.15,2013-01-28 11:14:00,
2013-01-28 06:19:00,12.3,2.8,30.39,ESE,123,3.0,4.0,65,0.00,,,0.00,Wunderground v.1.15,2013-01-28 11:19:00,
2013-01-28 06:24:00,12.3,2.8,30.39,SE,124,3.0,4.0,65,0.00,,,0.00,Wunderground v.1.15,2013-01-28 11:24:00,
2013-01-28 06:29:00,12.4,3.2,30.39,SE,124,0.0,4.0,66,0.00,,,0.00,Wunderground v.1.15,2013-01-28 11:29:00,
2013-01-28 06:34:00,12.4,2.9,30.39,SE,124,2.0,3.0,65,0.00,,,0.00,Wunderground v.1.15,2013-01-28 11:34:00,
2013-01-28 06:39:00,12.4,2.5,30.39,SE,126,3.0,4.0,64,0.00,,,0.00,Wunderground v.1.15,2013-01-28 11:39:00,
2013-01-28 06:44:00,12.6,2.7,30.39,SE,126,2.0,4.0,64,0.00,,,0.00,Wunderground v.1.15,2013-01-28 11:44:00,
2013-01-28 06:49:00,12.6,2.7,30.39,SE,126,0.0,4.0,64,0.00,,,0.00,Wunderground v.1.15,2013-01-28 11:49:00,
2013-01-28 06:54:00,12.6,3.1,30.39,SE,126,0.0,3.0,65,0.00,,,0.00,Wunderground v.1.15,2013-01-28 11:54:00,
2013-01-28 06:59:00,12.6,2.7,30.39,SE,127,2.0,3.0,64,0.00,,,0.00,Wunderground v.1.15,2013-01-28 11:59:00,
2013-01-28 07:04:00,12.8,3.2,30.39,SE,127,2.0,3.0,65,0.00,,,0.00,Wunderground v.1.15,2013-01-28 12:04:00,
2013-01-28 07:09:00,12.8,3.2,30.39,SE,127,2.0,5.0,65,0.00,,,0.00,Wunderground v.1.15,2013-01-28 12:09:00,
2013-01-28 07:14:00,12.9,3.7,30.39,SE,127,2.0,4.0,66,0.00,,,0.00,Wunderground v.1.15,2013-01-28 12:14:00,
2013-01-28 07:19:00,12.9,3.7,30.39,SE,127,0.0,4.0,66,0.00,,,0.00,Wunderground v.1.15,2013-01-28 12:19:00,
2013-01-28 07:24:00,13.1,3.9,30.39,SE,127,1.0,3.0,66,0.00,,,0.00,Wunderground v.1.15,2013-01-28 12:24:00,
2013-01-28 07:29:00,13.1,4.2,30.38,SE,127,0.0,3.0,67,0.00,,,0.00,Wunderground v.1.15,2013-01-28 12:29:00,
2013-01-28 07:34:00,13.3,4.4,30.38,SE,127,0.0,4.0,67,0.00,,,0.00,Wunderground v.1.15,2013-01-28 12:34:00,
2013-01-28 07:39:00,13.3,4.7,30.38,SE,127,0.0,4.0,68,0.00,,,0.00,Wunderground v.1.15,2013-01-28 12:39:00,
2013-01-28 07:44:00,13.5,4.6,30.38,SE,127,1.0,3.0,67,0.00,,,0.00,Wunderground v.1.15,2013-01-28 12:44:00,
2013-01-28 07:49:00,13.5,4.6,30.38,SE,127,2.0,3.0,67,0.00,,,0.00,Wunderground v.1.15,2013-01-28 12:49:00,
2013-01-28 07:54:00,13.5,4.6,30.38,SE,127,1.0,3.0,67,0.00,,,0.00,Wunderground v.1.15,2013-01-28 12:54:00,
2013-01-28 07:59:00,13.6,4.7,30.38,SE,127,2.0,4.0,67,0.00,,,0.00,Wunderground v.1.15,2013-01-28 12:59:00,
2013-01-28 08:04:00,13.8,4.5,30.38,SE,128,2.0,5.0,66,0.00,,,0.00,Wunderground v.1.15,2013-01-28 13:04:00,
2013-01-28 08:09:00,14.0,5.1,30.38,SE,128,2.0,5.0,67,0.00,,,0.00,Wunderground v.1.15,2013-01-28 13:09:00,
2013-01-28 08:14:00,14.1,5.1,30.37,SE,128,1.0,3.0,67,0.00,,,0.00,Wunderground v.1.15,2013-01-28 13:14:00,
2013-01-28 08:19:00,14.3,5.0,30.37,SE,128,2.0,2.0,66,0.00,,,0.00,Wunderground v.1.15,2013-01-28 13:19:00,
2013-01-28 08:24:00,14.4,5.1,30.37,SE,128,0.0,4.0,66,0.00,,,0.00,Wunderground v.1.15,2013-01-28 13:24:00,
2013-01-28 08:30:00,14.8,5.5,30.37,SE,128,0.0,1.0,66,0.00,,,0.00,Wunderground v.1.15,2013-01-28 13:30:00,
2013-01-28 08:35:00,14.9,5.6,30.37,SE,128,2.0,4.0,66,0.00,,,0.00,Wunderground v.1.15,2013-01-28 13:35:00,
2013-01-28 08:40:00,15.2,5.5,30.37,SE,128,0.0,2.0,65,0.00,,,0.00,Wunderground v.1.15,2013-01-28 13:40:00,
2013-01-28 08:45:00,15.4,5.0,30.35,SE,134,2.0,6.0,63,0.00,,,0.00,Wunderground v.1.15,2013-01-28 13:45:00,
2013-01-28 08:50:00,15.4,5.0,30.35,SE,136,5.0,5.0,63,0.00,,,0.00,Wunderground v.1.15,2013-01-28 13:50:00,
2013-01-28 08:55:00,15.6,5.2,30.35,SE,137,2.0,5.0,63,0.00,,,0.00,Wunderground v.1.15,2013-01-28 13:55:00,
2013-01-28 09:00:00,15.9,5.9,30.35,SE,139,3.0,3.0,64,0.00,,,0.00,Wunderground v.1.15,2013-01-28 14:00:00,
2013-01-28 09:05:00,16.1,5.7,30.35,SE,146,4.0,5.0,63,0.00,,,0.00,Wunderground v.1.15,2013-01-28 14:05:00,
2013-01-28 09:10:00,16.4,5.6,30.35,SSE,159,6.0,6.0,62,0.00,,,0.00,Wunderground v.1.15,2013-01-28 14:10:00,
2013-01-28 09:15:00,16.9,6.1,30.34,SSE,163,2.0,6.0,62,0.00,,,0.00,Wunderground v.1.15,2013-01-28 14:15:00,
2013-01-28 09:20:00,17.3,6.5,30.34,SSE,165,0.0,3.0,62,0.00,,,0.00,Wunderground v.1.15,2013-01-28 14:20:00,
2013-01-28 09:25:00,17.8,6.2,30.34,SSE,163,4.0,8.0,60,0.00,,,0.00,Wunderground v.1.15,2013-01-28 14:25:00,
2013-01-28 09:30:00,18.1,6.2,30.33,SSE,165,2.0,3.0,59,0.00,,,0.00,Wunderground v.1.15,2013-01-28 14:30:00,
2013-01-28 09:35:00,18.3,6.4,30.33,SSE,165,4.0,6.0,59,0.00,,,0.00,Wunderground v.1.15,2013-01-28 14:35:00,
2013-01-28 09:40:00,18.4,6.4,30.33,SSE,168,4.0,4.0,59,0.00,,,0.00,Wunderground v.1.15,2013-01-28 14:40:00,
2013-01-28 09:45:00,18.8,6.4,30.32,South,171,3.0,7.0,58,0.00,,,0.00,Wunderground v.1.15,2013-01-28 14:45:00,
2013-01-28 09:50:00,19.2,6.8,30.32,South,173,2.0,4.0,58,0.00,,,0.00,Wunderground v.1.15,2013-01-28 14:50:00,
2013-01-28 09:55:00,19.5,5.9,30.32,South,176,4.0,6.0,55,0.00,,,0.00,Wunderground v.1.15,2013-01-28 14:55:00,
2013-01-28 10:00:00,19.9,6.7,30.31,South,178,3.0,6.0,56,0.00,,,0.00,Wunderground v.1.15,2013-01-28 15:00:00,
2013-01-28 10:05:00,20.0,4.3,30.31,SSW,193,11.0,12.0,50,0.00,,,0.00,Wunderground v.1.15,2013-01-28 15:05:00,
2013-01-28 10:10:00,20.0,4.7,30.31,SSW,193,10.0,10.0,51,0.00,,,0.00,Wunderground v.1.15,2013-01-28 15:10:00,
2013-01-28 10:15:00,20.0,6.0,30.30,SSW,199,5.0,16.0,54,0.00,,,0.00,Wunderground v.1.15,2013-01-28 15:15:00,
2013-01-28 10:20:00,19.9,9.7,30.30,South,183,13.0,13.0,64,0.00,,,0.00,Wunderground v.1.15,2013-01-28 15:20:00,
2013-01-28 10:25:00,19.4,11.2,30.30,South,180,7.0,15.0,70,0.00,,,0.00,Wunderground v.1.15,2013-01-28 15:25:00,
2013-01-28 10:30:00,19.1,12.2,30.30,South,181,6.0,10.0,74,0.00,,,0.00,Wunderground v.1.15,2013-01-28 15:30:00,
2013-01-28 10:35:00,18.9,12.3,30.30,South,188,10.0,15.0,75,0.00,,,0.00,Wunderground v.1.15,2013-01-28 15:35:00,
2013-01-28 10:40:00,19.1,12.8,30.30,SSW,204,10.0,13.0,76,0.00,,,0.00,Wunderground v.1.15,2013-01-28 15:40:00,
2013-01-28 10:46:00,18.9,12.9,30.30,South,170,10.0,16.0,77,0.00,,,0.00,Wunderground v.1.15,2013-01-28 15:46:00,
2013-01-28 10:51:00,18.9,13.5,30.30,SSW,192,11.0,15.0,79,0.00,,,0.00,Wunderground v.1.15,2013-01-28 15:51:00,
2013-01-28 10:56:00,18.9,13.7,30.29,SSW,193,10.0,15.0,80,0.00,,,0.00,Wunderground v.1.15,2013-01-28 15:56:00,
2013-01-28 11:01:00,18.9,14.3,30.29,South,182,5.0,12.0,82,0.00,,,0.00,Wunderground v.1.15,2013-01-28 16:01:00,
2013-01-28 11:06:00,18.8,14.2,30.29,South,187,8.0,16.0,82,0.00,,,0.00,Wunderground v.1.15,2013-01-28 16:06:00,
2013-01-28 11:11:00,18.8,14.5,30.28,South,188,7.0,10.0,83,0.00,,,0.00,Wunderground v.1.15,2013-01-28 16:11:00,
2013-01-28 11:16:00,18.9,14.9,30.28,South,186,5.0,11.0,84,0.00,,,0.00,Wunderground v.1.15,2013-01-28 16:16:00,
2013-01-28 11:21:00,19.1,15.1,30.28,SSW,192,13.0,13.0,84,0.00,,,0.00,Wunderground v.1.15,2013-01-28 16:21:00,
2013-01-28 11:26:00,19.2,15.2,30.26,South,189,7.0,13.0,84,0.00,,,0.00,Wunderground v.1.15,2013-01-28 16:26:00,
2013-01-28 11:31:00,19.4,15.6,30.26,SSW,194,7.0,7.0,85,0.00,,,0.00,Wunderground v.1.15,2013-01-28 16:31:00,
2013-01-28 11:36:00,19.4,15.6,30.26,South,189,10.0,15.0,85,0.00,,,0.00,Wunderground v.1.15,2013-01-28 16:36:00,
2013-01-28 11:41:00,19.5,15.7,30.24,South,180,4.0,8.0,85,0.00,,,0.00,Wunderground v.1.15,2013-01-28 16:41:00,
2013-01-28 11:46:00,19.9,16.1,30.24,South,175,5.0,14.0,85,0.00,,,0.00,Wunderground v.1.15,2013-01-28 16:46:00,
2013-01-28 11:51:00,19.9,16.1,30.24,South,182,6.0,14.0,85,0.00,,,0.00,Wunderground v.1.15,2013-01-28 16:51:00,
2013-01-28 11:56:00,19.9,16.4,30.23,South,190,6.0,14.0,86,0.00,,,0.00,Wunderground v.1.15,2013-01-28 16:56:00,
2013-01-28 12:01:00,19.9,16.7,30.23,South,190,5.0,8.0,87,0.00,,,0.00,Wunderground v.1.15,2013-01-28 17:01:00,
2013-01-28 12:06:00,20.0,16.8,30.23,South,187,5.0,10.0,87,0.00,,,0.00,Wunderground v.1.15,2013-01-28 17:06:00,
2013-01-28 12:11:00,20.2,17.0,30.21,South,186,5.0,10.0,87,0.00,,,0.00,Wunderground v.1.15,2013-01-28 17:11:00,
2013-01-28 12:16:00,20.5,17.5,30.21,South,186,0.0,10.0,88,0.00,,,0.00,Wunderground v.1.15,2013-01-28 17:16:00,
2013-01-28 12:21:00,20.5,17.5,30.21,South,182,4.0,5.0,88,0.00,,,0.00,Wunderground v.1.15,2013-01-28 17:21:00,
2013-01-28 12:26:00,20.6,17.6,30.19,South,182,0.0,6.0,88,0.00,,,0.00,Wunderground v.1.15,2013-01-28 17:26:00,
2013-01-28 12:31:00,20.5,17.5,30.19,South,182,6.0,6.0,88,0.00,,,0.00,Wunderground v.1.15,2013-01-28 17:31:00,
2013-01-28 12:36:00,20.6,17.6,30.19,South,181,3.0,9.0,88,0.00,,,0.00,Wunderground v.1.15,2013-01-28 17:36:00,
2013-01-28 12:41:00,20.6,17.6,30.17,South,184,5.0,10.0,88,0.00,,,0.00,Wunderground v.1.15,2013-01-28 17:41:00,
2013-01-28 12:46:00,20.6,17.6,30.17,South,184,6.0,10.0,88,0.00,,,0.00,Wunderground v.1.15,2013-01-28 17:46:00,
2013-01-28 12:51:00,20.6,17.6,30.17,SSW,192,10.0,10.0,88,0.00,,,0.00,Wunderground v.1.15,2013-01-28 17:51:00,
2013-01-28 12:56:00,20.8,17.8,30.16,SSW,192,7.0,10.0,88,0.00,,,0.00,Wunderground v.1.15,2013-01-28 17:56:00,
2013-01-28 13:01:00,21.0,18.0,30.16,SSW,193,2.0,6.0,88,0.00,,,0.00,Wunderground v.1.15,2013-01-28 18:01:00,
2013-01-28 13:06:00,21.0,18.0,30.16,SSW,195,4.0,8.0,88,0.00,,,0.00,Wunderground v.1.15,2013-01-28 18:06:00,
2013-01-28 13:11:00,21.0,17.7,30.16,SSW,200,5.0,10.0,87,0.00,,,0.00,Wunderground v.1.15,2013-01-28 18:11:00,
2013-01-28 13:16:00,21.0,17.7,30.16,SSW,202,4.0,10.0,87,0.00,,,0.00,Wunderground v.1.15,2013-01-28 18:16:00,
2013-01-28 13:21:00,21.0,17.7,30.16,SSW,198,6.0,10.0,87,0.00,,,0.00,Wunderground v.1.15,2013-01-28 18:21:00,
2013-01-28 13:26:00,21.0,17.7,30.15,SSW,196,3.0,10.0,87,0.00,,,0.00,Wunderground v.1.15,2013-01-28 18:26:00,
2013-01-28 13:31:00,21.1,17.8,30.15,SSW,194,3.0,6.0,87,0.00,,,0.00,Wunderground v.1.15,2013-01-28 18:31:00,
2013-01-28 13:36:00,21.0,18.0,30.15,SSW,194,5.0,7.0,88,0.00,,,0.00,Wunderground v.1.15,2013-01-28 18:36:00,
2013-01-28 13:41:00,21.0,18.0,30.13,South,178,8.0,10.0,88,0.00,,,0.00,Wunderground v.1.15,2013-01-28 18:41:00,
2013-01-28 13:46:00,21.0,18.0,30.13,South,176,1.0,10.0,88,0.00,,,0.00,Wunderground v.1.15,2013-01-28 18:46:00,
2013-01-28 13:51:00,21.0,18.0,30.13,South,177,5.0,5.0,88,0.00,,,0.00,Wunderground v.1.15,2013-01-28 18:51:00,
2013-01-28 13:56:00,21.0,18.0,30.11,South,177,3.0,6.0,88,0.00,,,0.00,Wunderground v.1.15,2013-01-28 18:56:00,
2013-01-28 14:01:00,21.0,18.3,30.11,South,177,2.0,4.0,89,0.00,,,0.00,Wunderground v.1.15,2013-01-28 19:01:00,
2013-01-28 14:06:00,21.0,18.3,30.11,South,177,2.0,4.0,89,0.00,,,0.00,Wunderground v.1.15,2013-01-28 19:06:00,
2013-01-28 14:11:00,21.1,18.4,30.11,South,177,2.0,5.0,89,0.00,,,0.00,Wunderground v.1.15,2013-01-28 19:11:00,
2013-01-28 14:17:00,21.3,18.8,30.11,South,177,1.0,5.0,90,0.00,,,0.00,Wunderground v.1.15,2013-01-28 19:17:00,
2013-01-28 14:22:00,21.3,18.8,30.11,South,178,3.0,6.0,90,0.00,,,0.00,Wunderground v.1.15,2013-01-28 19:22:00,
2013-01-28 14:27:00,21.3,18.8,30.09,South,175,3.0,8.0,90,0.00,,,0.00,Wunderground v.1.15,2013-01-28 19:27:00,
2013-01-28 14:32:00,21.3,18.8,30.09,South,175,4.0,6.0,90,0.00,,,0.00,Wunderground v.1.15,2013-01-28 19:32:00,
2013-01-28 14:37:00,21.3,18.8,30.09,South,175,3.0,6.0,90,0.00,,,0.00,Wunderground v.1.15,2013-01-28 19:37:00,
2013-01-28 14:42:00,21.3,18.8,30.09,South,177,4.0,7.0,90,0.00,,,0.00,Wunderground v.1.15,2013-01-28 19:42:00,
2013-01-28 14:47:00,21.3,18.8,30.09,South,177,4.0,7.0,90,0.00,,,0.00,Wunderground v.1.15,2013-01-28 19:47:00,
2013-01-28 14:52:00,21.3,18.8,30.09,South,177,3.0,4.0,90,0.00,,,0.00,Wunderground v.1.15,2013-01-28 19:52:00,
2013-01-28 14:57:00,21.4,18.9,30.09,South,177,2.0,4.0,90,0.00,,,0.00,Wunderground v.1.15,2013-01-28 19:57:00,
2013-01-28 15:02:00,21.3,18.8,30.09,South,177,4.0,4.0,90,0.00,,,0.00,Wunderground v.1.15,2013-01-28 20:02:00,
2013-01-28 15:07:00,21.3,18.8,30.09,South,177,2.0,4.0,90,0.00,,,0.00,Wunderground v.1.15,2013-01-28 20:07:00,
2013-01-28 15:12:00,21.3,18.8,30.08,South,177,1.0,5.0,90,0.00,,,0.00,Wunderground v.1.15,2013-01-28 20:12:00,
2013-01-28 15:17:00,21.3,18.8,30.08,South,177,3.0,5.0,90,0.00,,,0.00,Wunderground v.1.15,2013-01-28 20:17:00,
2013-01-28 15:22:00,21.3,18.8,30.08,South,177,2.0,3.0,90,0.00,,,0.00,Wunderground v.1.15,2013-01-28 20:22:00,
2013-01-28 15:27:00,21.4,18.9,30.07,South,177,2.0,3.0,90,0.00,,,0.00,Wunderground v.1.15,2013-01-28 20:27:00,
2013-01-28 15:32:00,21.4,18.9,30.07,South,177,3.0,4.0,90,0.00,,,0.00,Wunderground v.1.15,2013-01-28 20:32:00,
2013-01-28 15:37:00,21.6,19.1,30.07,South,177,2.0,4.0,90,0.00,,,0.00,Wunderground v.1.15,2013-01-28 20:37:00,
2013-01-28 15:42:00,21.6,19.1,30.06,South,177,0.0,2.0,90,0.00,,,0.00,Wunderground v.1.15,2013-01-28 20:42:00,
2013-01-28 15:47:00,21.8,19.6,30.06,South,177,2.0,3.0,91,0.00,,,0.00,Wunderground v.1.15,2013-01-28 20:47:00,
2013-01-28 15:52:00,21.8,19.6,30.06,South,177,0.0,3.0,91,0.00,,,0.00,Wunderground v.1.15,2013-01-28 20:52:00,
2013-01-28 15:57:00,21.9,19.7,30.06,South,177,0.0,3.0,91,0.00,,,0.00,Wunderground v.1.15,2013-01-28 20:57:00,
2013-01-28 16:02:00,22.1,19.9,30.06,South,177,1.0,3.0,91,0.00,,,0.00,Wunderground v.1.15,2013-01-28 21:02:00,
2013-01-28 16:07:00,22.1,19.9,30.06,South,177,4.0,5.0,91,0.00,,,0.00,Wunderground v.1.15,2013-01-28 21:07:00,
2013-01-28 16:12:00,22.1,19.9,30.06,South,177,3.0,4.0,91,0.00,,,0.00,Wunderground v.1.15,2013-01-28 21:12:00,
2013-01-28 16:17:00,22.1,19.9,30.06,South,178,4.0,7.0,91,0.00,,,0.00,Wunderground v.1.15,2013-01-28 21:17:00,
2013-01-28 16:22:00,22.1,19.9,30.06,South,178,2.0,6.0,91,0.00,,,0.00,Wunderground v.1.15,2013-01-28 21:22:00,
2013-01-28 16:27:00,22.1,19.6,30.04,South,178,5.0,6.0,90,0.00,,,0.00,Wunderground v.1.15,2013-01-28 21:27:00,
2013-01-28 16:32:00,22.2,19.7,30.04,South,178,4.0,7.0,90,0.00,,,0.00,Wunderground v.1.15,2013-01-28 21:32:00,
2013-01-28 16:37:00,22.2,19.7,30.04,South,178,3.0,7.0,90,0.00,,,0.00,Wunderground v.1.15,2013-01-28 21:37:00,
2013-01-28 16:42:00,22.2,20.0,30.04,South,178,2.0,4.0,91,0.00,,,0.00,Wunderground v.1.15,2013-01-28 21:42:00,
2013-01-28 16:47:00,22.2,20.0,30.04,South,178,2.0,4.0,91,0.00,,,0.00,Wunderground v.1.15,2013-01-28 21:47:00,
2013-01-28 16:52:00,22.2,20.0,30.04,South,178,0.0,3.0,91,0.00,,,0.00,Wunderground v.1.15,2013-01-28 21:52:00,
2013-01-28 16:57:00,22.2,20.0,30.03,South,178,1.0,3.0,91,0.00,,,0.00,Wunderground v.1.15,2013-01-28 21:57:00,
2013-01-28 17:02:00,22.2,20.0,30.03,South,178,2.0,3.0,91,0.00,,,0.00,Wunderground v.1.15,2013-01-28 22:02:00,
2013-01-28 17:07:00,22.4,20.2,30.03,South,178,1.0,3.0,91,0.00,,,0.00,Wunderground v.1.15,2013-01-28 22:07:00,
2013-01-28 17:12:00,22.4,20.2,30.04,South,178,3.0,3.0,91,0.00,,,0.00,Wunderground v.1.15,2013-01-28 22:12:00,
2013-01-28 17:17:00,22.4,20.2,30.04,South,178,1.0,3.0,91,0.00,,,0.00,Wunderground v.1.15,2013-01-28 22:17:00,
2013-01-28 17:23:00,22.4,20.2,30.04,South,178,1.0,2.0,91,0.00,,,0.00,Wunderground v.1.15,2013-01-28 22:23:00,
2013-01-28 17:28:00,22.4,20.2,30.03,South,178,0.0,2.0,91,0.00,,,0.00,Wunderground v.1.15,2013-01-28 22:28:00,
2013-01-28 17:33:00,22.4,20.2,30.03,South,178,0.0,0.0,91,0.00,,,0.00,Wunderground v.1.15,2013-01-28 22:33:00,
2013-01-28 17:38:00,22.4,20.2,30.03,South,178,0.0,2.0,91,0.00,,,0.00,Wunderground v.1.15,2013-01-28 22:38:00,
2013-01-28 17:43:00,22.4,20.2,30.03,South,178,0.0,2.0,91,0.00,,,0.00,Wunderground v.1.15,2013-01-28 22:43:00,
2013-01-28 17:48:00,22.4,20.2,30.03,South,178,1.0,4.0,91,0.00,,,0.00,Wunderground v.1.15,2013-01-28 22:48:00,
2013-01-28 17:53:00,22.4,20.4,30.03,South,178,2.0,4.0,92,0.00,,,0.00,Wunderground v.1.15,2013-01-28 22:53:00,
2013-01-28 17:58:00,22.4,20.4,30.02,South,178,1.0,4.0,92,0.00,,,0.00,Wunderground v.1.15,2013-01-28 22:58:00,
2013-01-28 18:03:00,22.4,20.4,30.02,South,178,4.0,4.0,92,0.00,,,0.00,Wunderground v.1.15,2013-01-28 23:03:00,
2013-01-28 18:08:00,22.4,20.4,30.02,South,178,1.0,7.0,92,0.00,,,0.00,Wunderground v.1.15,2013-01-28 23:08:00,
2013-01-28 18:13:00,22.5,20.5,30.02,South,178,4.0,5.0,92,0.00,,,0.00,Wunderground v.1.15,2013-01-28 23:13:00,
2013-01-28 18:18:00,22.4,20.4,30.02,South,178,2.0,5.0,92,0.00,,,0.00,Wunderground v.1.15,2013-01-28 23:18:00,
2013-01-28 18:23:00,22.4,20.4,30.02,South,178,1.0,5.0,92,0.00,,,0.00,Wunderground v.1.15,2013-01-28 23:23:00,
2013-01-28 18:28:00,22.5,20.5,30.01,South,173,4.0,7.0,92,0.00,,,0.00,Wunderground v.1.15,2013-01-28 23:28:00,
2013-01-28 18:33:00,22.5,20.5,30.01,South,173,3.0,4.0,92,0.00,,,0.00,Wunderground v.1.15,2013-01-28 23:33:00,
2013-01-28 18:38:00,22.5,20.5,30.01,South,173,1.0,5.0,92,0.00,,,0.00,Wunderground v.1.15,2013-01-28 23:38:00,
2013-01-28 18:43:00,22.7,20.7,30.01,South,174,5.0,6.0,92,0.00,,,0.00,Wunderground v.1.15,2013-01-28 23:43:00,
2013-01-28 18:48:00,22.7,20.7,30.01,South,174,2.0,6.0,92,0.00,,,0.00,Wunderground v.1.15,2013-01-28 23:48:00,
2013-01-28 18:53:00,22.9,20.9,30.01,South,174,2.0,4.0,92,0.00,,,0.00,Wunderground v.1.15,2013-01-28 23:53:00,
2013-01-28 18:58:00,22.9,20.9,30.02,South,174,5.0,5.0,92,0.00,,,0.00,Wunderground v.1.15,2013-01-28 23:58:00,
2013-01-28 19:03:00,23.0,21.0,30.02,South,174,3.0,5.0,92,0.00,,,0.00,Wunderground v.1.15,2013-01-29 00:03:00,
2013-01-28 19:08:00,23.0,21.0,30.02,South,175,4.0,6.0,92,0.00,,,0.00,Wunderground v.1.15,2013-01-29 00:08:00,
2013-01-28 19:13:00,23.0,21.0,30.01,South,175,2.0,5.0,92,0.00,,,0.00,Wunderground v.1.15,2013-01-29 00:13:00,
2013-01-28 19:18:00,23.0,21.0,30.01,South,175,3.0,5.0,92,0.00,,,0.00,Wunderground v.1.15,2013-01-29 00:18:00,
2013-01-28 19:23:00,23.0,21.0,30.01,South,175,3.0,4.0,92,0.00,,,0.00,Wunderground v.1.15,2013-01-29 00:23:00,
2013-01-28 19:28:00,23.0,21.0,30.01,South,175,2.0,4.0,92,0.00,,,0.00,Wunderground v.1.15,2013-01-29 00:28:00,
2013-01-28 19:33:00,23.0,21.0,30.01,South,175,2.0,4.0,92,0.00,,,0.00,Wunderground v.1.15,2013-01-29 00:33:00,
2013-01-28 19:38:00,23.0,21.0,30.01,South,175,0.0,4.0,92,0.00,,,0.00,Wunderground v.1.15,2013-01-29 00:38:00,
2013-01-28 19:43:00,23.0,21.3,30.00,South,175,1.0,3.0,93,0.00,,,0.00,Wunderground v.1.15,2013-01-29 00:43:00,
2013-01-28 19:48:00,23.2,21.5,30.00,South,175,1.0,3.0,93,0.00,,,0.00,Wunderground v.1.15,2013-01-29 00:48:00,
2013-01-28 19:53:00,23.2,21.5,30.00,South,175,0.0,5.0,93,0.00,,,0.00,Wunderground v.1.15,2013-01-29 00:53:00,
2013-01-28 19:58:00,23.2,21.5,29.99,South,175,1.0,5.0,93,0.00,,,0.00,Wunderground v.1.15,2013-01-29 00:58:00,
2013-01-28 20:03:00,23.2,21.5,29.99,South,175,2.0,3.0,93,0.00,,,0.00,Wunderground v.1.15,2013-01-29 01:03:00,
2013-01-28 20:08:00,23.2,21.5,29.99,South,175,0.0,4.0,93,0.00,,,0.00,Wunderground v.1.15,2013-01-29 01:08:00,
2013-01-28 20:13:00,23.2,21.5,29.99,South,175,3.0,3.0,93,0.00,,,0.00,Wunderground v.1.15,2013-01-29 01:13:00,
2013-01-28 20:18:00,23.2,21.5,29.99,South,175,1.0,3.0,93,0.00,,,0.00,Wunderground v.1.15,2013-01-29 01:18:00,
2013-01-28 20:23:00,23.2,21.5,29.99,South,175,0.0,2.0,93,0.00,,,0.00,Wunderground v.1.15,2013-01-29 01:23:00,
2013-01-28 20:28:00,23.3,21.6,29.99,South,175,0.0,4.0,93,0.00,,,0.00,Wunderground v.1.15,2013-01-29 01:28:00,
2013-01-28 20:33:00,23.3,21.6,29.99,South,175,2.0,4.0,93,0.00,,,0.00,Wunderground v.1.15,2013-01-29 01:33:00,
2013-01-28 20:39:00,23.3,21.6,29.99,South,175,2.0,4.0,93,0.00,,,0.00,Wunderground v.1.15,2013-01-29 01:39:00,
2013-01-28 20:44:00,23.3,21.6,29.98,South,175,2.0,5.0,93,0.00,,,0.00,Wunderground v.1.15,2013-01-29 01:44:00,
2013-01-28 20:49:00,23.5,21.8,29.98,South,175,4.0,5.0,93,0.00,,,0.00,Wunderground v.1.15,2013-01-29 01:49:00,
2013-01-28 20:54:00,23.5,21.8,29.98,South,174,0.0,7.0,93,0.00,,,0.00,Wunderground v.1.15,2013-01-29 01:54:00,
2013-01-28 20:59:00,23.5,21.8,29.98,South,174,4.0,7.0,93,0.00,,,0.00,Wunderground v.1.15,2013-01-29 01:59:00,
2013-01-28 21:04:00,23.6,21.9,29.98,South,174,2.0,4.0,93,0.00,,,0.00,Wunderground v.1.15,2013-01-29 02:04:00,
2013-01-28 21:09:00,23.6,21.9,29.98,South,174,1.0,5.0,93,0.00,,,0.00,Wunderground v.1.15,2013-01-29 02:09:00,
2013-01-28 21:14:00,23.6,21.9,29.98,South,174,5.0,5.0,93,0.00,,,0.00,Wunderground v.1.15,2013-01-29 02:14:00,
2013-01-28 21:19:00,23.6,21.9,29.98,South,174,3.0,5.0,93,0.00,,,0.00,Wunderground v.1.15,2013-01-29 02:19:00,
2013-01-28 21:24:00,23.6,21.9,29.98,South,174,2.0,4.0,93,0.00,,,0.00,Wunderground v.1.15,2013-01-29 02:24:00,
2013-01-28 21:29:00,23.8,22.1,29.97,South,174,0.0,6.0,93,0.00,,,0.00,Wunderground v.1.15,2013-01-29 02:29:00,
2013-01-28 21:34:00,23.8,22.1,29.97,South,174,0.0,4.0,93,0.00,,,0.00,Wunderground v.1.15,2013-01-29 02:34:00,
2013-01-28 21:39:00,23.8,22.1,29.97,South,174,3.0,5.0,93,0.00,,,0.00,Wunderground v.1.15,2013-01-29 02:39:00,
2013-01-28 21:44:00,23.8,22.1,29.97,South,174,0.0,5.0,93,0.00,,,0.00,Wunderground v.1.15,2013-01-29 02:44:00,
2013-01-28 21:49:00,23.8,22.1,29.97,South,174,0.0,5.0,93,0.00,,,0.00,Wunderground v.1.15,2013-01-29 02:49:00,
2013-01-28 21:54:00,23.8,22.1,29.97,South,174,0.0,3.0,93,0.00,,,0.00,Wunderground v.1.15,2013-01-29 02:54:00,
2013-01-28 21:59:00,23.8,22.1,29.98,South,174,1.0,3.0,93,0.00,,,0.00,Wunderground v.1.15,2013-01-29 02:59:00,
2013-01-28 22:04:00,23.8,22.1,29.98,South,174,0.0,2.0,93,0.00,,,0.00,Wunderground v.1.15,2013-01-29 03:04:00,
2013-01-28 22:09:00,23.8,22.1,29.98,South,174,0.0,2.0,93,0.00,,,0.00,Wunderground v.1.15,2013-01-29 03:09:00,
2013-01-28 22:14:00,23.8,22.1,29.98,South,174,0.0,4.0,93,0.00,,,0.00,Wunderground v.1.15,2013-01-29 03:14:00,
2013-01-28 22:19:00,23.8,22.1,29.98,South,174,0.0,4.0,93,0.00,,,0.00,Wunderground v.1.15,2013-01-29 03:19:00,
2013-01-28 22:24:00,23.8,22.1,29.98,South,174,0.0,1.0,93,0.00,,,0.00,Wunderground v.1.15,2013-01-29 03:24:00,
2013-01-28 22:29:00,23.6,21.9,29.98,South,174,0.0,2.0,93,0.00,,,0.00,Wunderground v.1.15,2013-01-29 03:29:00,
2013-01-28 22:34:00,23.8,22.1,29.98,South,174,0.0,3.0,93,0.00,,,0.00,Wunderground v.1.15,2013-01-29 03:34:00,
2013-01-28 22:39:00,23.8,22.1,29.98,South,174,0.0,3.0,93,0.00,,,0.00,Wunderground v.1.15,2013-01-29 03:39:00,
2013-01-28 22:44:00,23.8,22.1,29.98,South,174,0.0,1.0,93,0.00,,,0.00,Wunderground v.1.15,2013-01-29 03:44:00,
2013-01-28 22:49:00,23.8,22.1,29.98,South,174,0.0,1.0,93,0.00,,,0.00,Wunderground v.1.15,2013-01-29 03:49:00,
2013-01-28 22:54:00,23.8,22.1,29.98,South,174,0.0,2.0,93,0.00,,,0.00,Wunderground v.1.15,2013-01-29 03:54:00,
2013-01-28 22:59:00,23.8,22.1,29.98,South,174,0.0,2.0,93,0.00,,,0.00,Wunderground v.1.15,2013-01-29 03:59:00,
2013-01-28 23:04:00,23.8,22.1,29.98,South,174,0.0,0.0,93,0.00,,,0.00,Wunderground v.1.15,2013-01-29 04:04:00,
2013-01-28 23:09:00,23.9,22.2,29.98,South,174,0.0,0.0,93,0.00,,,0.00,Wunderground v.1.15,2013-01-29 04:09:00,
2013-01-28 23:14:00,23.9,22.2,29.99,South,174,1.0,1.0,93,0.00,,,0.00,Wunderground v.1.15,2013-01-29 04:14:00,
2013-01-28 23:19:00,23.9,22.2,29.99,South,174,0.0,1.0,93,0.00,,,0.00,Wunderground v.1.15,2013-01-29 04:19:00,
2013-01-28 23:24:00,23.9,22.2,29.99,South,174,0.0,0.0,93,0.00,,,0.00,Wunderground v.1.15,2013-01-29 04:24:00,
2013-01-28 23:29:00,23.9,22.2,29.99,South,174,0.0,0.0,93,0.00,,,0.00,Wunderground v.1.15,2013-01-29 04:29:00,
2013-01-28 23:34:00,23.9,22.2,29.99,South,174,0.0,0.0,93,0.00,,,0.00,Wunderground v.1.15,2013-01-29 04:34:00,
2013-01-28 23:39:00,23.8,22.1,29.99,South,174,0.0,0.0,93,0.00,,,0.00,Wunderground v.1.15,2013-01-29 04:39:00,
2013-01-28 23:44:00,23.8,22.1,29.99,South,174,0.0,0.0,93,0.00,,,0.00,Wunderground v.1.15,2013-01-29 04:44:00,
2013-01-28 23:49:00,23.6,21.9,29.99,South,174,0.0,0.0,93,0.00,,,0.00,Wunderground v.1.15,2013-01-29 04:49:00,
2013-01-28 23:54:00,23.6,21.9,29.99,South,174,0.0,2.0,93,0.00,,,0.00,Wunderground v.1.15,2013-01-29 04:54:00,
2013-01-28 23:59:00,23.6,21.9,30.01,South,174,0.0,2.0,93,0.00,,,0.00,Wunderground v.1.15,2013-01-29 04:59:00,